Location: ??????
(55.2000°N, 38.3000°E)
Time: 07:29:01
(UTC+00:00)

Cosmos 2333 Rocket - Pass Details

Date: 15 November 2025
Orbit: 837 x 865 km, 70.8° (Epoch: 14 December)

Event Time Altitude Azimuth Distance (km) Brightness Sun altitude
Exits shadow 00:35:27 24° 19° (NNE) 1,727 4.1 -36.9°
Drops below altitude 10° 00:37:46 10° 30° (NNE) 2,514 5.2 -36.6°
Sets 00:40:21 0° 36° (NE) 3,457 6.1 -36.3°
